Pittsburgh Allegheny Co., PA

1:19 PM EST on November 21, 2019 (GMT -0500)
Allegheny County

Weather History for KAGC - July, 2019

Change the Weather History Date:

Saturday, July 20, 2019

  Actual Average Record
Temperature  
Mean Temperature 82 °F -  
Max Temperature 91 °F 84 °F 94 °F (1991)
Min Temperature 75 °F 64 °F 53 °F (1997)
Cooling Degree Days 18    
Growing Degree Days 32 (Base 50)    
Moisture  
Dew Point 75 °F    
Average Humidity 76    
Maximum Humidity 94    
Minimum Humidity 61    
Precipitation  
Precipitation 0.00 in - - ()
Sea Level Pressure  
Sea Level Pressure 29.95 in    
Wind  
Wind Speed 7 mph (SW)    
Max Wind Speed 14 mph    
Max Gust Speed 23 mph    
Visibility 9 miles    
Events Thunderstorm    
Averages and records for this station are not official NWS values.
T = Trace of Precipitation, MM = Missing Value Source: NWS Daily Summary

Daily Weather History Graph

Daily Weather History Graph

Search for Another Location

Airport or City:

Astronomy

Jul. 20, 2019 Rise Set
Actual Time 6:06 AM EDT 8:45 PM EDT
Civil Twilight 5:34 AM EDT 9:16 PM EDT
Nautical Twilight 4:55 AM EDT 9:56 PM EDT
Astronomical Twilight 4:10 AM EDT 10:40 PM EDT
Moon 11:11 PM EDT (7/20) 9:28 AM EDT (7/20)
Length of Visible Light 15h 42m
Length of Day
14h 39m
Waning Gibbous, 87% of the Moon is Illuminated
Jul 20
Waning Gibbous
Jul 24
Last Quarter
Jul 31
New
Aug 7
First Quarter
Aug 15
Full

Hourly Weather History & Observations

Time (EDT) Temp. Heat Index Dew Point Humidity Pressure Visibility Wind Dir Wind Speed Gust Speed Precip Events Conditions
12:53 AM 78.1 °F - 73.9 °F 87% 29.97 in 8.0 mi South 6.9 mph - N/A   Clear
1:53 AM 77.0 °F - 73.9 °F 90% 29.98 in 8.0 mi SSW 3.5 mph - N/A   Clear
2:53 AM 78.1 °F - 73.9 °F 87% 29.96 in 8.0 mi WSW 5.8 mph - N/A   Clear
3:53 AM 77.0 °F - 73.9 °F 90% 29.97 in 8.0 mi SW 5.8 mph - N/A   Clear
4:53 AM 77.0 °F - 73.9 °F 90% 29.99 in 8.0 mi Calm Calm - N/A   Clear
5:53 AM 75.9 °F - 73.9 °F 94% 29.96 in 8.0 mi South 6.9 mph - N/A   Clear
6:53 AM 75.9 °F - 73.9 °F 94% 29.97 in 6.0 mi South 3.5 mph - N/A   Partly Cloudy
7:53 AM 78.1 °F - 73.9 °F 87% 29.98 in 8.0 mi WSW 9.2 mph - N/A   Clear
8:53 AM 80.1 °F 84.5 °F 73.9 °F 81% 30.02 in 10.0 mi West 9.2 mph - N/A   Clear
9:39 AM 80.1 °F 84.5 °F 73.9 °F 81% 30.03 in 10.0 mi NW 6.9 mph - N/A   Mostly Cloudy
9:53 AM 80.1 °F 84.5 °F 73.9 °F 81% 30.00 in 10.0 mi NNW 5.8 mph - N/A   Overcast
10:16 AM 82.0 °F 88.6 °F 75.0 °F 79% 29.99 in 10.0 mi Calm Calm - N/A   Scattered Clouds
10:53 AM 84.0 °F 91.9 °F 75.0 °F 74% 29.95 in 10.0 mi SSW 12.7 mph - N/A   Scattered Clouds
11:53 AM 84.9 °F 93.3 °F 75.0 °F 72% 29.90 in 10.0 mi South 12.7 mph 23.0 mph N/A   Clear
12:53 PM 88.0 °F 97.5 °F 75.0 °F 65% 29.90 in 10.0 mi SSW 13.8 mph 23.0 mph N/A   Clear
1:53 PM 88.0 °F 96.5 °F 73.9 °F 63% 29.90 in 10.0 mi SW 13.8 mph 20.7 mph N/A   Partly Cloudy
2:53 PM 90.0 °F 101.3 °F 75.9 °F 63% 29.89 in 10.0 mi North - - N/A   Scattered Clouds
3:53 PM 90.0 °F 100.2 °F 75.0 °F 61% 29.90 in 10.0 mi West 10.4 mph 16.1 mph N/A   Scattered Clouds
4:53 PM 89.1 °F 99.1 °F 75.0 °F 63% 29.91 in 10.0 mi West 9.2 mph - N/A   Scattered Clouds
5:53 PM 88.0 °F 97.5 °F 75.0 °F 65% 29.93 in 10.0 mi West 9.2 mph 17.3 mph N/A   Partly Cloudy
6:53 PM 87.1 °F 97.3 °F 75.9 °F 69% 29.94 in 10.0 mi West 11.5 mph 19.6 mph N/A   Scattered Clouds
7:53 PM 86.0 °F 95.1 °F 75.0 °F 70% 29.93 in 10.0 mi WSW 10.4 mph - N/A   Clear
8:23 PM 86.0 °F 95.1 °F 75.0 °F 70% 29.95 in 10.0 mi SW 6.9 mph - N/A Thunderstorm Partly Cloudy
8:38 PM 86.0 °F 95.1 °F 75.0 °F 70% 29.94 in 10.0 mi SSW 6.9 mph - N/A   Partly Cloudy
8:53 PM 86.0 °F 95.1 °F 75.0 °F 70% 29.91 in 10.0 mi SW 10.4 mph - N/A Thunderstorm Thunderstorm
9:14 PM 84.9 °F 93.3 °F 75.0 °F 72% 29.94 in 10.0 mi SSW 5.8 mph - N/A Thunderstorm Clear
9:28 PM 84.0 °F 91.9 °F 75.0 °F 74% 29.95 in 10.0 mi SSW 6.9 mph - N/A   Scattered Clouds
9:53 PM 84.0 °F 91.9 °F 75.0 °F 74% 29.94 in 10.0 mi SW 6.9 mph - N/A   Scattered Clouds
10:53 PM 82.9 °F 89.4 °F 73.9 °F 74% 29.93 in 10.0 mi WSW 8.1 mph - N/A   Clear
11:53 PM 80.1 °F 84.5 °F 73.9 °F 81% 29.93 in 10.0 mi SSW 5.8 mph - N/A   Clear